User: anonymous   Login
Location: Stoke Bliss
(52.2667°N, 2.5167°W)
Time: 18:56:25
(UTC+00:00)
Language:

ERS-1 Rocket - Orbit

View from above orbital plane
View from above orbital plane
View from above satellite
View from above satellite

Ground track
Ground track

The orbit data is extracted from the following two-line orbital elements,

1 21610U 91050F   21334.47015883  .00000058  00000-0  31571-4 0  9998
2 21610  98.4072  42.6184 0004401 103.2756 267.2974 14.40980990594177
Epoch (UTC): 30 November 2021 11:17:01
Eccentricity: 0.0004401
inclination: 98.4072°
perigee height: 752 km
apogee height: 758 km
right ascension of ascending node: 42.6184°
argument of perigee: 103.2756°
revolutions per day: 14.40980990
mean anomaly at epoch: 267.2974°
orbit number at epoch: 59417

The dashed part of the orbit path shows where the satellite is in the earth's shadow,  

DLR